CDT,Max TemperatureF,Mean TemperatureF,Min TemperatureF,Max Dew PointF,MeanDew PointF,Min DewpointF,Max Humidity, Mean Humidity, Min Humidity, Max Sea Level PressureIn, Mean Sea Level PressureIn, Min Sea Level PressureIn, Max VisibilityMiles, Mean VisibilityMiles, Min VisibilityMiles, Max Wind SpeedMPH, Mean Wind SpeedMPH, Max Gust SpeedMPH,PrecipitationIn, CloudCover, Events, WindDirDegrees
2012-9-1,75,72,68,72,64,57,94,77,60,30.05,29.99,29.93,10,10,7,21,13,25,0.05,5,,66
2012-9-2,87,78,69,73,70,64,94,81,58,29.93,29.90,29.86,10,10,9,16,12,23,0.00,5,,64
2012-9-3,93,78,64,72,69,63,94,73,46,29.95,29.91,29.88,10,10,10,10,4,,0.00,1,,360
2012-9-4,96,80,64,73,70,57,100,71,39,29.93,29.87,29.80,10,10,5,23,2,37,0.03,2,Thunderstorm,203
2012-9-5,89,76,64,70,65,61,94,74,43,30.00,29.83,29.78,10,10,10,23,9,34,0.38,2,Thunderstorm,244
2012-9-6,84,73,62,66,59,48,100,67,29,29.97,29.92,29.86,10,10,5,10,3,16,0.00,0,,320
2012-9-7,78,66,55,64,60,54,100,81,61,29.93,29.87,29.82,10,10,4,16,6,21,0.30,3,Thunderstorm,3
2012-9-8,73,62,51,54,49,46,94,62,41,29.98,29.92,29.81,10,10,10,21,11,26,0.00,1,,301
2012-9-9,75,62,51,54,49,46,88,66,38,30.17,30.07,29.89,10,10,10,16,10,23,0.00,1,,359
2012-9-10,78,62,46,54,49,45,100,64,34,30.23,30.16,30.08,10,10,7,12,4,16,0.00,0,,155
2012-9-11,84,70,55,57,53,50,82,58,35,30.15,30.09,30.03,10,10,10,10,5,21,0.00,0,,178
2012-9-12,89,72,55,61,57,54,94,59,33,30.15,30.10,30.06,10,10,5,10,3,17,0.00,0,,185
2012-9-13,69,60,50,57,50,43,94,75,48,30.36,30.28,30.13,10,9,0,18,7,24,0.11,6,,6
2012-9-14,75,60,44,55,47,43,100,68,34,30.38,30.34,30.29,10,7,0,16,3,20,0.01,2,,267
2012-9-15,80,62,44,52,46,43,93,58,26,30.33,30.25,30.15,10,10,5,8,3,,0.00,0,,259
2012-9-16,78,60,42,54,47,41,93,64,32,30.14,30.06,29.97,10,10,9,10,2,17,0.00,0,,215
2012-9-17,80,66,51,63,55,46,100,80,51,29.98,29.88,29.77,10,8,2,18,4,26,0.38,4,Thunderstorm,284
2012-9-18,64,52,39,46,40,34,93,64,32,30.05,29.96,29.88,10,10,10,17,9,23,0.06,1,,321
2012-9-19,75,55,35,48,42,34,93,59,31,30.05,29.93,29.78,10,10,7,13,4,26,0.00,2,,191
2012-9-20,73,56,42,48,39,34,87,50,25,29.96,29.92,29.86,10,10,10,22,8,29,0.00,0,,277
2012-9-21,57,50,42,50,44,37,93,80,63,29.95,29.88,29.81,10,10,3,16,3,23,0.05,5,,45
2012-9-22,60,51,42,46,39,32,93,68,45,30.21,30.04,29.83,10,10,8,20,8,28,0.02,4,,299
2012-9-23,62,47,32,39,33,28,100,63,27,30.30,30.25,30.21,10,10,2,16,5,23,0.00,0,,302
2012-9-24,75,52,30,39,33,27,93,52,23,30.24,30.07,29.91,10,10,7,13,3,21,0.00,0,,231
2012-9-25,82,64,46,61,50,37,88,62,37,29.91,29.85,29.80,10,10,6,12,2,16,0.00,0,,222
2012-9-26,73,62,48,57,48,39,100,69,36,30.18,30.02,29.88,10,9,0,14,5,,0.00,1,,30
2012-9-27,68,54,39,46,41,36,93,66,40,30.25,30.20,30.15,10,10,10,12,6,,0.00,0,,52
2012-9-28,71,55,39,45,41,36,93,64,33,30.24,30.17,30.12,10,10,2,10,2,16,0.00,0,,16
2012-9-29,82,60,39,45,40,36,87,54,23,30.15,30.06,29.95,10,10,7,16,4,23,0.00,1,,309
2012-9-30,73,58,42,48,42,37,93,59,29,30.00,29.97,29.91,10,10,5,14,5,18,0.00,0,,59